GW2678 Weather Reports


time (UTC)temp
F
wind
direction
speed
knots
gust
knots
rain 1hr
in
rain 24hr
in
rain mn
in
humidity
%
barometer
mb
20260505035240 50 209 0.0 5.2 0.00 0.03 0.03 76 1013.3
20260505034741 50 207 0.9 5.2 0.00 0.03 0.03 76 1013.2
20260505034516 52 207 0.0 5.2 0.00 0.03 0.03 75 1011.6
20260505034241 50 207 1.7 5.2 0.00 0.03 0.03 76 1013.2
20260505033741 50 207 1.7 5.2 0.00 0.03 0.03 76 1013.3
20260505033242 50 183 0.9 5.2 0.00 0.03 0.03 76 1013.3
20260505033015 52 197 0.0 5.2 0.00 0.03 0.03 76 1011.7
20260505032740 50 198 0.9 5.2 0.00 0.03 0.03 76 1013.3
20260505032241 50 198 2.6 5.2 0.00 0.03 0.03 77 1013.2
20260505031740 50 44 1.7 3.5 0.00 0.03 0.03 77 1013.1
20260505031514 52 22 1.7 3.5 0.00 0.03 0.03 78 1011.5
20260505031241 50 260 0.0 3.5 0.00 0.03 0.03 78 1013.0
20260505030741 51 260 0.0 2.6 0.00 0.03 0.03 77 1013.1
20260505030241 51 257 0.0 2.6 0.00 0.03 0.03 77 1013.1
20260505030024 53 257 0.0 1.7 0.00 0.03 0.03 75 1011.3
20260505025740 51 259 0.0 2.6 0.00 0.03 0.03 75 1013.0
20260505025242 51 269 0.9 7.8 0.00 0.03 0.03 75 1012.8
20260505025011 51 265 1.7 7.8 0.00 0.03 0.03 75 1012.6
20260505024516 53 258 0.9 9.6 0.00 0.03 0.03 75 1010.9
20260505024242 51 273 2.6 9.6 0.00 0.03 0.03 75 1012.5
20260505023738 50 262 2.6 9.6 0.00 0.03 0.03 75 1012.4
20260505023238 50 246 3.5 7.8 0.01 0.03 0.03 76 1012.2
20260505023020 52 265 2.6 6.1 0.01 0.03 0.03 76 1010.7
20260505022738 50 259 2.6 4.3 0.01 0.03 0.03 76 1012.0
20260505022239 50 199 2.6 5.2 0.01 0.03 0.03 77 1011.9
20260505022009 50 254 2.6 5.2 0.02 0.03 0.03 76 1011.9
20260505021512 52 258 1.7 5.2 0.02 0.03 0.03 77 1010.4
20260505021239 50 234 2.6 5.2 0.02 0.03 0.03 78 1012.0
20260505020743 50 267 2.6 6.1 0.03 0.03 0.03 77 1012.2
20260505020739 50 245 1.7 6.1 0.02 0.03 0.03 77 1012.1
20260505020015 52 242 2.6 6.1 0.03 0.03 0.03 77 1010.7
20260505015739 50 241 2.6 6.1 0.03 0.03 0.03 78 1012.4
20260505015243 49 276 2.6 6.1 0.03 0.03 0.03 80 1012.4
20260505014737 50 272 1.7 6.1 0.03 0.03 0.03 80 1012.2
20260505014510 52 232 0.9 6.1 0.03 0.03 0.03 79 1010.6
20260505014237 50 258 1.7 6.1 0.03 0.03 0.03 79 1012.1
20260505014005 50 246 1.7 6.1 0.03 0.03 0.03 79 1012.2
20260505013232 50 250 1.7 6.1 0.02 0.02 0.02 78 1012.2
20260505013016 52 250 0.9 6.1 0.02 0.02 0.02 77 1010.5
20260505012731 50 295 1.7 7.0 0.02 0.02 0.02 77 1012.2
20260505012230 51 264 1.7 7.0 0.02 0.02 0.02 77 1012.5
20260505011729 51 252 1.7 7.0 0.01 0.01 0.01 76 1012.7
20260505011506 53 261 0.9 7.0 0.01 0.01 0.01 75 1010.8
20260505011229 51 290 2.6 7.8 0.01 0.01 0.01 76 1012.7
20260505010729 51 278 2.6 7.8 0.01 0.01 0.01 75 1012.7
20260505010228 52 257 2.6 7.8 0.00 0.00 0.00 74 1012.7
20260505010011 54 244 1.7 7.8 0.00 0.00 0.00 72 1011.0
20260505005729 52 219 2.6 7.8 0.00 0.00 0.00 72 1012.7
20260505005459 53 286 3.5 12.2 0.00 0.00 0.00 71 1012.6
20260505004959 53 334 4.3 12.2 0.00 0.00 0.00 70 1012.6
20260505004518 56 308 3.5 12.2 0.00 0.00 0.00 68 1010.9
20260505004227 54 338 5.2 13.0 0.00 0.00 0.00 66 1012.5
20260505003958 55 306 6.1 13.0 0.00 0.00 0.00 61 1012.2
20260505003457 55 312 7.0 12.2 0.00 0.00 0.00 59 1012.2
20260505003020 57 319 6.1 12.2 0.00 0.00 0.00 58 1010.6
20260505002726 56 333 6.1 12.2 0.00 0.00 0.00 58 1012.2
20260505002227 56 317 5.2 10.4 0.00 0.00 0.00 57 1012.2
20260505001727 57 314 4.3 10.4 0.00 0.00 0.00 55 1012.2
20260505001514 59 324 4.3 10.4 0.00 0.00 0.00 54 1010.5
20260505001226 58 322 4.3 10.4 0.00 0.00 0.00 54 1012.2
20260505000726 58 310 4.3 10.4 0.00 0.00 0.00 53 1012.0
20260505000226 58 34 4.3 8.7 0.00 0.00 0.00 50 1011.9
20260505000010 60 30 2.6 7.8 0.00 0.00 0.00 49 1010.0
20260504235726 58 46 5.2 8.7 0.00 0.00 0.00 48 1011.7
20260504235226 58 55 5.2 10.4 0.00 0.00 0.00 50 1011.9
20260504234959 58 26 5.2 10.4 0.00 0.00 0.00 52 1011.8
20260504234506 60 30 5.2 7.8 0.00 0.00 0.00 52 1010.0
20260504234227 58 44 4.3 10.4 0.00 0.00 0.00 51 1011.9
20260504233726 58 344 5.2 11.3 0.00 0.00 0.00 53 1011.9
20260504233458 58 37 6.1 11.3 0.00 0.00 0.00 52 1011.7
20260504233016 60 18 6.1 11.3 0.00 0.00 0.00 51 1009.9
20260504232726 58 355 5.2 11.3 0.00 0.00 0.00 53 1011.7
20260504232226 59 347 4.3 11.3 0.00 0.00 0.00 53 1011.9
20260504231725 60 326 2.6 7.8 0.00 0.00 0.00 51 1011.8
20260504231523 62 298 2.6 7.8 0.00 0.00 0.00 50 1010.0
20260504231224 60 271 2.6 7.8 0.00 0.00 0.00 47 1011.8
20260504230724 60 313 1.7 8.7 0.00 0.00 0.00 44 1011.7
20260504230224 60 295 1.7 8.7 0.00 0.00 0.00 45 1011.5
20260504230010 62 299 0.0 4.3 0.00 0.00 0.00 44 1009.8
20260504225726 60 288 2.6 8.7 0.00 0.00 0.00 44 1011.5
20260504225224 60 302 3.5 12.2 0.00 0.00 0.00 43 1011.3
20260504224724 61 326 5.2 12.2 0.00 0.00 0.00 42 1011.3
20260504224512 63 342 5.2 12.2 0.00 0.00 0.00 41 1009.5
20260504224455 61 348 7.0 12.2 0.00 0.00 0.00 41 1011.2
20260504223723 61 344 7.8 12.2 0.00 0.00 0.00 41 1011.1
20260504223450 62 342 7.8 14.8 0.00 0.00 0.00 40 1011.0
20260504223010 64 26 7.8 13.0 0.00 0.00 0.00 40 1009.2
20260504222718 62 32 8.7 14.8 0.00 0.00 0.00 40 1010.8
20260504222450 62 34 9.6 14.8 0.00 0.00 0.00 40 1010.8
20260504221948 62 22 8.7 14.8 0.00 0.00 0.00 40 1010.7
20260504221823 62 31 7.8 13.0 0.00 0.00 0.00 39 1010.6
20260504221510 64 47 11.3 14.8 0.00 0.00 0.00 39 1009.0
20260504220949 62 40 7.0 13.0 0.00 0.00 0.00 39 1010.6
20260504220218 63 31 7.0 13.0 0.00 0.00 0.00 37 1010.6
20260504220022 65 360 6.1 12.2 0.00 0.00 0.00 37 1008.8
20260504215718 62 35 7.0 13.0 0.00 0.00 0.00 38 1010.6
20260504215217 63 49 7.8 13.0 0.00 0.00 0.00 36 1010.8
20260504214949 63 36 7.8 13.0 0.00 0.00 0.00 36 1010.8
20260504214509 65 24 6.1 11.3 0.00 0.00 0.00 35 1009.0
20260504214216 63 55 7.8 12.2 0.00 0.00 0.00 36 1010.6
20260504213947 63 96 6.1 12.2 0.00 0.00 0.00 37 1010.8
20260504213216 62 94 6.1 12.2 0.00 0.00 0.00 38 1011.1
20260504213019 64 109 3.5 12.2 0.00 0.00 0.00 38 1009.4
20260504212716 61 69 6.1 12.2 0.00 0.00 0.00 39 1011.3
20260504212217 61 61 7.0 12.2 0.00 0.00 0.00 40 1011.3
20260504211716 61 35 8.7 15.6 0.00 0.00 0.00 40 1011.2
20260504211516 63 35 9.6 14.8 0.00 0.00 0.00 40 1009.5
20260504211216 60 49 9.6 15.6 0.00 0.00 0.00 41 1011.4
20260504210716 61 24 10.4 15.6 0.00 0.00 0.00 41 1011.5
20260504210447 61 9 9.6 20.0 0.00 0.00 0.00 39 1011.5
20260504210011 64 41 9.6 16.5 0.00 0.00 0.00 39 1009.6
20260504205713 62 13 10.4 20.0 0.00 0.00 0.00 39 1011.5
20260504205215 62 37 12.2 20.0 0.00 0.00 0.00 38 1011.2
20260504204715 63 5 12.2 20.0 0.00 0.00 0.00 37 1011.2
20260504204507 65 5 12.2 20.0 0.00 0.00 0.00 35 1009.3
20260504204445 64 30 11.3 19.1 0.00 0.00 0.00 35 1010.8
20260504203714 64 350 12.2 20.9 0.00 0.00 0.00 34 1010.6
20260504203214 64 19 12.2 20.9 0.00 0.00 0.00 33 1010.4
20260504203034 66 14 13.0 20.9 0.00 0.00 0.00 32 1008.6
20260504202714 64 34 13.0 25.2 0.00 0.00 0.00 33 1010.4
20260504202213 63 5 13.9 25.2 0.00 0.00 0.00 33 1010.1
20260504201714 63 5 14.8 27.8 0.00 0.00 0.00 34 1010.1
20260504201514 65 360 13.9 27.8 0.00 0.00 0.00 33 1008.6
20260504201211 64 11 14.8 27.8 0.00 0.00 0.00 33 1010.7
20260504200942 65 0 12.2 21.7 0.00 0.00 0.00 31 1010.5
20260504200211 67 33 11.3 20.0 0.00 0.00 0.00 28 1010.7
20260504200022 70 33 10.4 20.0 0.00 0.00 0.00 26 1008.9
20260504195712 69 325 7.8 20.0 0.00 0.00 0.00 25 1010.5
20260504195211 71 34 6.1 12.2 0.00 0.00 0.00 21 1010.4
20260504194712 71 337 6.1 12.2 0.00 0.00 0.00 22 1010.0
20260504194508 73 346 5.2 12.2 0.00 0.00 0.00 22 1008.4
20260504194216 70 355 6.1 12.2 0.00 0.00 0.00 24 1010.0
20260504194212 71 355 6.1 12.2 0.00 0.00 0.00 24 1010.1
20260504193443 69 333 5.2 12.2 0.00 0.00 0.00 25 1010.0
20260504193017 71 331 5.2 12.2 0.00 0.00 0.00 25 1008.3
20260504192712 69 317 5.2 12.2 0.00 0.00 0.00 26 1010.0
20260504192210 69 286 6.1 16.5 0.00 0.00 0.00 27 1010.0
20260504191710 69 355 7.0 16.5 0.00 0.00 0.00 27 1010.0
20260504191521 71 275 6.1 13.9 0.00 0.00 0.00 27 1008.4
20260504191210 69 317 7.0 13.9 0.00 0.00 0.00 26 1010.0
20260504190708 70 273 6.1 11.3 0.00 0.00 0.00 26 1010.1
20260504190206 71 269 5.2 12.2 0.00 0.00 0.00 25 1010.0
20260504190010 73 271 5.2 12.2 0.00 0.00 0.00 25 1008.3
20260504185706 71 298 4.3 12.2 0.00 0.00 0.00 26 1010.1
20260504185434 71 342 3.5 10.4 0.00 0.00 0.00 24 1010.0
20260504184703 71 307 4.3 10.4 0.00 0.00 0.00 25 1009.9
20260504184506 72 290 2.6 10.4 0.00 0.00 0.00 23 1008.3
20260504184202 70 223 4.3 10.4 0.00 0.00 0.00 23 1010.0
20260504183702 70 263 4.3 12.2 0.00 0.00 0.00 24 1010.1
20260504183202 70 282 5.2 12.2 0.00 0.00 0.00 24 1010.1
20260504183005 72 217 2.6 12.2 0.00 0.00 0.00 24 1008.4
20260504182701 69 272 7.0 12.2 0.00 0.00 0.00 24 1010.3
20260504182202 69 261 7.0 12.2 0.00 0.00 0.00 24 1010.3
20260504181934 69 226 7.0 12.2 0.00 0.00 0.00 24 1010.4
20260504181516 71 235 7.0 12.2 0.00 0.00 0.00 24 1008.6
20260504181202 69 232 6.1 12.2 0.00 0.00 0.00 24 1010.4
20260504180702 69 195 5.2 11.3 0.00 0.00 0.00 24 1010.4
20260504180201 69 213 5.2 9.6 0.00 0.00 0.00 25 1010.5
20260504180017 70 244 4.3 9.6 0.00 0.00 0.00 24 1008.7
20260504175701 68 265 4.3 8.7 0.00 0.00 0.00 25 1010.5
20260504175432 68 237 4.3 9.6 0.00 0.00 0.00 25 1010.6
20260504174701 68 247 4.3 9.6 0.00 0.00 0.00 25 1010.6
20260504174509 70 230 3.5 9.6 0.00 0.00 0.00 25 1008.8
20260504174433 68 227 4.3 9.6 0.00 0.00 0.00 26 1010.7
20260504173934 68 231 5.2 9.6 0.00 0.00 0.00 25 1010.7
20260504173808 67 228 5.2 12.2 0.00 0.00 0.00 25 1010.8
20260504173202 67 217 5.2 10.4 0.00 0.00 0.00 25 1010.8
20260504173010 69 212 4.3 10.4 0.00 0.00 0.00 25 1008.9
20260504172201 67 205 5.2 12.2 0.00 0.00 0.00 25 1010.8
20260504171701 67 229 5.2 12.2 0.00 0.00 0.00 25 1010.8
20260504171506 69 218 5.2 12.2 0.00 0.00 0.00 24 1009.0
20260504171202 67 264 5.2 12.2 0.00 0.00 0.00 25 1011.0
20260504170701 67 233 6.1 11.3 0.00 0.00 0.00 25 1011.0
20260504170202 67 211 6.1 11.3 0.00 0.00 0.00 25 1011.0
20260504160200 66 267 4.3 11.3 0.00 0.00 0.00 23 1011.0
20260504150653 65 247 6.1 13.9 0.00 0.00 0.00 23 1011.1
20260504150153 65 246 6.1 13.9 0.00 0.00 0.00 23 1011.2
20260504141150 61 0 1.7 5.2 0.00 0.00 0.00 28 1011.3
20260504140920 60 274 1.7 4.3 0.00 0.00 0.00 27 1011.3
20260504140149 60 274 0.9 7.8 0.00 0.00 0.00 26 1011.2
20260504130645 53 100 0.9 3.5 0.00 0.00 0.00 31 1011.4
20260504130145 53 131 1.7 9.6 0.00 0.00 0.00 30 1011.4
20260504110638 49 258 1.7 3.5 0.00 0.00 0.00 36 1011.5
20260504110137 49 258 1.7 3.5 0.00 0.00 0.00 36 1011.7
20260504100134 48 259 0.9 4.3 0.00 0.00 0.00 40 1011.8
20260504090129 49 286 0.0 1.7 0.00 0.00 0.00 40 1012.0
20260504081629 49 286 0.9 2.6 0.00 0.00 0.00 42 1012.5
20260504081520 51 286 0.0 2.6 0.00 0.00 0.00 41 1011.0
20260504081128 49 319 1.7 2.6 0.00 0.00 0.00 39 1012.7
20260504080629 49 320 0.9 2.6 0.00 0.00 0.00 38 1012.7
20260504080128 49 341 0.0 2.6 0.00 0.00 0.00 43 1012.7
20260504070128 52 347 0.0 0.0 0.00 0.00 0.00 39 1013.1
20260504050624 58 31 0.0 0.0 0.00 0.00 0.00 33 1013.5
20260504050355 58 31 0.0 0.0 0.00 0.00 0.00 29 1013.5
20260504050017 60 31 0.0 0.0 0.00 0.00 0.00 28 1011.7
20260504045855 59 31 0.0 0.0 0.00 0.00 0.00 30 1013.5
20260504045357 59 31 0.0 4.3 0.00 0.00 0.00 31 1013.7
20260504044624 60 31 0.0 4.3 0.00 0.00 0.00 31 1013.7
20260504044515 62 31 0.0 4.3 0.00 0.00 0.00 31 1012.0
20260504044125 60 31 0.9 4.3 0.00 0.00 0.00 30 1013.8
20260504043624 60 31 2.6 11.3 0.00 0.00 0.00 29 1013.7
20260504043125 60 32 4.3 11.3 0.00 0.00 0.00 29 1013.8
20260504043012 63 30 2.6 11.3 0.00 0.00 0.00 28 1011.9
20260504042855 61 32 6.1 11.3 0.00 0.00 0.00 28 1013.7
20260504042355 61 36 7.0 11.3 0.00 0.00 0.00 27 1013.7
20260504041625 61 19 7.0 11.3 0.00 0.00 0.00 27 1013.7
20260504041524 63 25 7.0 10.4 0.00 0.00 0.00 26 1011.8
20260504041125 61 32 7.0 11.3 0.00 0.00 0.00 26 1013.5
20260504040624 61 342 6.1 11.3 0.00 0.00 0.00 27 1013.4
20260504040125 60 355 3.5 10.4 0.00 0.00 0.00 27 1013.4
20260504040024 62 323 4.3 9.6 0.00 0.00 0.00 29 1011.7
20260504035628 60 346 2.6 9.6 0.00 0.00 0.00 29 1013.4
20260504035624 60 335 2.6 9.6 0.00 0.00 0.00 30 1013.3